Surat Airport

Airport
ICAO code: 
VASU
IATA Code: 
STV
Summary
ICAO Region: 
APAC
Territory: 
Location: 
Magdalla, Gujarat
Serving: 
Surat
Elevation: 
16 ft
Coordinates: 
Aerial View: 
21° 6' 50.62" N, 72° 44' 30.451" E
Metar
Observation
VASU 260700Z 18010KT 6000 FEW020 SCT025 34/24 Q1008 NOSIG
Station
Surat Airport
Date/Time
2022-05-26 07:00:00
Wind direction
180°
Wind speed
10 kts
Lowest cloud amount
few clouds
Temperature
34°C
Dew point
24°C
Humidity
56%
QNH
1008 hPa
Weather condition
n/a

Climatology

Tropical Savanna climate (Köppen climate classification Aw)

Runways

Designator Length Width Surface Rops
4/22 2250 30 ASP No/No
Airport map: 
Aerial View: 

Accidents and Serious Incidents at or in the vicinity of VASU

SKYbrary Partners:

Safety knowledge contributed by: